カタログに戻る

COSMOS 1339

運用中軍事PO
NORAD 13065·PAYLOAD·🇷🇺 Russia

打ち上げ Feb 17, 1982 から Plesetsk Cosmodrome

Loading…

次のパス (今後24時間)

TLE

最新Source: Space-Track

元期: Sep 14, 2026, 00:04 UTC

1 13065U 82012A   26257.00328851  .00000040  00000-0  25771-4 0  9997
2 13065  82.8957 253.1314 0041846 271.8323  87.8041 13.75789375236749

AllMySatでCOSMOS 1339をリアルタイム追跡

Download on the App Store